Location: Bolzano
(46.5170°N, 11.3670°E)
Time: 12:04:28
(UTC+01:00)

Envisat - Visible Passes

Search period start: 28 October 2020 00:00
Search period end: 07 November 2020 00:00
Orbit: 764 x 766 km, 98.1° (Epoch: 28 October)

Date Brightness Start Highest point End Pass type
(mag) Time Alt. Az. Time Alt. Az. Time Alt. Az.
28 Oct 4.6 05:43:51 10° NNE 05:48:37 39° E 05:53:20 10° SSE visible
28 Oct 6.1 18:42:11 10° SW 18:45:26 17° W 18:48:42 10° NW visible
29 Oct 5.9 05:07:55 10° NE 05:11:29 19° E 05:15:03 10° SE visible
29 Oct 4.9 18:03:40 10° SSW 18:08:17 35° W 18:12:56 10° NNW visible
30 Oct 3.5 06:09:04 10° NNE 06:14:09 66° ESE 06:19:11 10° S visible
30 Oct 3.3 17:26:16 10° S 17:31:20 74° WSW 17:36:26 10° NNW visible
31 Oct 5.0 05:32:38 10° NNE 05:37:10 31° E 05:41:39 10° SSE visible
31 Oct 5.8 18:30:08 10° SW 18:33:55 21° W 18:37:45 10° NW visible
01 Nov 6.2 04:57:03 10° NE 04:59:59 15° E 05:02:54 10° ESE visible
01 Nov 4.4 17:52:01 10° S 17:56:50 43° W 18:01:42 10° NNW visible
02 Nov 4.0 05:57:45 10° NNE 06:02:44 53° E 06:07:41 10° S visible
02 Nov 6.4 18:57:38 10° WSW 18:59:41 12° W 19:01:44 10° WNW visible
03 Nov 5.4 05:21:30 10° NE 05:25:42 25° E 05:29:52 10° SSE visible
03 Nov 5.4 18:18:14 10° SSW 18:22:27 26° W 18:26:41 10° NW visible
04 Nov 6.4 04:46:32 10° ENE 04:48:27 12° E 04:50:21 10° ESE visible
04 Nov 3.1 06:23:05 10° NNE 06:28:13 89° ESE 06:33:18 10° SSW visible
04 Nov 3.9 17:40:27 10° S 17:45:25 54° W 17:50:25 10° NNW visible
05 Nov 4.4 05:46:29 10° NNE 05:51:19 42° E 05:56:07 10° S visible
05 Nov 6.1 18:45:10 10° SW 18:48:09 16° W 18:51:10 10° NW visible
06 Nov 5.7 05:10:27 10° NE 05:14:13 21° E 05:17:58 10° SE visible
06 Nov 5.0 18:06:28 10° SSW 18:10:59 32° W 18:15:32 10° NNW visible
